Weather History for Rochester, NH

Change the Weather History Date:

Sunday, October 20, 2013

  Actual Average (KSFM) Record (KSFM)
Temperature  
Mean Temperature 52 °F -  
Max Temperature 61 °F 54 °F 73 °F (2012)
Min Temperature 43 °F 33 °F 19 °F (2003)
Degree Days  
Heating Degree Days 14    
Growing Degree Days 2 (Base 50)    
Moisture  
Dew Point 37 °F    
Average Humidity 59    
Maximum Humidity 90    
Minimum Humidity 35    
Precipitation  
Precipitation 0.00 in - - ()
Sea Level Pressure  
Sea Level Pressure 29.80 in    
Wind  
Wind Speed 4 mph (West)    
Max Wind Speed 15 mph    
Max Gust Speed 24 mph    
Visibility 10 miles    
Events Rain    
Averages and records for this station are not official NWS values.
T = Trace of Precipitation, MM = Missing Value Source: NWS Daily Summary

Daily Weather History Graph

Daily Weather History Graph

Search for Another Location

Airport:

Trip Planner

Search our weather history database for the weather conditions in past years. The results will help you decide how hot, cold, wet, or windy it might be!

Date:

Astronomy

Oct. 20, 2013 Rise Set
Actual Time 7:03 AM EDT 5:52 PM EDT
Civil Twilight 6:34 AM EDT 6:21 PM EDT
Nautical Twilight 6:01 AM EDT 6:54 PM EDT
Astronomical Twilight 5:28 AM EDT 7:27 PM EDT
Moon 6:55 PM EDT 8:41 AM EDT
Length of Visible Light 11h 46m
Length of Day
10h 48m
Full, 97% of the Moon is Illuminated
Oct 20
Full
Oct 26
Last Quarter
Nov 3
New
Nov 10
First Quarter
Nov 17
Full

Hourly Weather History & Observations

Time (EDT) Temp. Dew Point Humidity Pressure Visibility Wind Dir Wind Speed Gust Speed Precip Events Conditions
12:51 AM 54.0 °F 45.0 °F 72% 29.72 in 10.0 mi Calm Calm - N/A   Overcast
1:51 AM 53.1 °F 46.0 °F 77% 29.70 in 10.0 mi SSE 3.5 mph - 0.00 in Rain Light Rain
2:51 AM 52.0 °F 46.0 °F 80% 29.69 in 10.0 mi Calm Calm - 0.00 in   Overcast
3:51 AM 50.0 °F 45.0 °F 83% 29.68 in 10.0 mi South 3.5 mph - N/A   Clear
4:51 AM 48.0 °F 44.1 °F 86% 29.67 in 10.0 mi Calm Calm - N/A   Clear
5:51 AM 46.9 °F 44.1 °F 90% 29.68 in 10.0 mi Calm Calm - N/A   Clear
6:51 AM 46.9 °F 44.1 °F 90% 29.69 in 10.0 mi Calm Calm - N/A   Clear
7:51 AM 48.9 °F 44.1 °F 83% 29.71 in 10.0 mi Variable 3.5 mph - N/A   Clear
8:51 AM 52.0 °F 41.0 °F 66% 29.73 in 10.0 mi WNW 9.2 mph - N/A   Clear
9:51 AM 55.0 °F 39.9 °F 57% 29.75 in 10.0 mi Variable 6.9 mph 19.6 mph N/A   Clear
10:51 AM 55.9 °F 37.0 °F 49% 29.77 in 10.0 mi WNW 12.7 mph 21.9 mph N/A   Clear
11:51 AM 59.0 °F 32.0 °F 36% 29.78 in 10.0 mi WNW 15.0 mph 24.2 mph N/A   Clear
12:51 PM 60.1 °F 33.1 °F 36% 29.78 in 10.0 mi WNW 11.5 mph 18.4 mph N/A   Clear
1:51 PM 60.1 °F 32.0 °F 35% 29.79 in 10.0 mi WNW 11.5 mph 19.6 mph N/A   Clear
2:51 PM 60.1 °F 32.0 °F 35% 29.81 in 10.0 mi West 10.4 mph 17.3 mph N/A   Partly Cloudy
3:51 PM 59.0 °F 30.9 °F 35% 29.83 in 10.0 mi West 10.4 mph 19.6 mph N/A   Clear
4:51 PM 57.0 °F 30.9 °F 37% 29.84 in 10.0 mi Variable 6.9 mph - N/A   Clear
5:51 PM 54.0 °F 30.9 °F 41% 29.87 in 10.0 mi Variable 4.6 mph - N/A   Clear
6:51 PM 52.0 °F 30.9 °F 45% 29.90 in 10.0 mi Variable 4.6 mph - N/A   Clear
7:51 PM 50.0 °F 32.0 °F 50% 29.93 in 10.0 mi West 3.5 mph - N/A   Clear
8:51 PM 48.9 °F 32.0 °F 52% 29.94 in 10.0 mi Calm Calm - N/A   Clear
9:51 PM 48.9 °F 32.0 °F 52% 29.96 in 10.0 mi Variable 3.5 mph - N/A   Clear
10:51 PM 43.0 °F 33.1 °F 68% 29.98 in 10.0 mi Calm Calm - N/A   Clear
11:51 PM 44.1 °F 33.1 °F 65% 29.98 in 10.0 mi Calm Calm - N/A   Clear